Mackall AAF, NC

9:08 AM EDT on August 20, 2017 (GMT -0400)
Mackall Army Air Field

Weather History for KHFF - November, 2012

Change the Weather History Date:

Monday, November 5, 2012

  Actual Average Record
Temperature  
Mean Temperature 46 °F -  
Max Temperature 57 °F 68 °F 86 °F (2003)
Min Temperature 35 °F 45 °F 32 °F (2007)
Degree Days  
Heating Degree Days 19    
Moisture  
Dew Point 38 °F    
Average Humidity 77    
Maximum Humidity 95    
Minimum Humidity 42    
Precipitation  
Precipitation 0.00 in - - ()
Sea Level Pressure  
Sea Level Pressure 30.08 in    
Wind  
Wind Speed 5 mph (NNE)    
Max Wind Speed 12 mph    
Max Gust Speed 14 mph    
Visibility 10 miles    
Events      
Averages and records for this station are not official NWS values.
T = Trace of Precipitation, MM = Missing Value Source: NWS Daily Summary

Daily Weather History Graph

Daily Weather History Graph

Search for Another Location

Airport or City:

Trip Planner

Search our weather history database for the weather conditions in past years. The results will help you decide how hot, cold, wet, or windy it might be!

Date:

Astronomy

Nov. 05, 2012 Rise Set
Actual Time 6:43 AM EST 5:19 PM EST
Civil Twilight 6:16 AM EST 5:45 PM EST
Nautical Twilight 5:46 AM EST 6:15 PM EST
Astronomical Twilight 5:17 AM EST 6:45 PM EST
Moon 10:55 PM EST (11/5) 12:01 PM EST (11/5)
Length of Visible Light 11h 29m
Length of Day
10h 36m
Waning Gibbous, 63% of the Moon is Illuminated
Nov 5
Waning Gibbous
Nov 6
Last Quarter
Nov 13
New
Nov 20
First Quarter
Nov 28
Full

Hourly Weather History & Observations

Time (EST) Temp. Windchill Dew Point Humidity Pressure Visibility Wind Dir Wind Speed Gust Speed Precip Events Conditions
12:55 AM 47.1 °F - 44.6 °F 91% 30.02 in 10.0 mi NNE 3.5 mph - N/A   Mostly Cloudy
1:55 AM 45.0 °F 42.6 °F 43.3 °F 94% 30.03 in 10.0 mi Variable 4.6 mph - N/A   Mostly Cloudy
2:55 AM 44.8 °F 42.4 °F 43.2 °F 94% 30.04 in 10.0 mi NNW 4.6 mph - N/A   Mostly Cloudy
3:55 AM 43.7 °F 42.1 °F 42.1 °F 94% 30.04 in 10.0 mi North 3.5 mph - N/A   Mostly Cloudy
4:55 AM 43.5 °F 40.9 °F 41.9 °F 94% 30.05 in 10.0 mi NNW 4.6 mph - N/A   Mostly Cloudy
5:55 AM 41.5 °F 38.6 °F 38.3 °F 88% 30.07 in 10.0 mi NNW 4.6 mph - N/A   Partly Cloudy
6:55 AM 39.7 °F 37.6 °F 37.0 °F 90% 30.08 in 10.0 mi North 3.5 mph - N/A   Clear
7:55 AM 42.8 °F 38.6 °F 37.6 °F 82% 30.09 in 10.0 mi North 6.9 mph - N/A   Clear
8:55 AM 45.1 °F 40.8 °F 40.1 °F 82% 30.11 in 10.0 mi NNE 8.1 mph - N/A   Scattered Clouds
8:58 AM 46.4 °F 41.5 °F 39.2 °F 76% 30.12 in 10.0 mi NNE 10.4 mph - N/A   Mostly Cloudy
9:34 AM 46.4 °F 41.1 °F 39.2 °F 76% 30.11 in 10.0 mi North 11.5 mph - N/A   Scattered Clouds
9:55 AM 48.4 °F - 40.1 °F 73% 30.12 in 10.0 mi NE 8.1 mph - N/A   Partly Cloudy
10:55 AM 51.3 °F - 38.8 °F 63% 30.10 in 10.0 mi NNW 6.9 mph 13.8 mph N/A   Partly Cloudy
11:19 AM 51.8 °F - 39.2 °F 62% 30.09 in 10.0 mi North 9.2 mph - N/A   Mostly Cloudy
11:24 AM 51.8 °F - 39.2 °F 62% 30.09 in 10.0 mi North 5.8 mph - N/A   Scattered Clouds
11:55 AM 52.7 °F - 38.3 °F 58% 30.08 in 10.0 mi North 5.8 mph - N/A   Partly Cloudy
12:55 PM 54.0 °F - 37.2 °F 53% 30.06 in 10.0 mi Variable 2.3 mph - N/A   Clear
1:55 PM 56.1 °F - 35.8 °F 46% 30.04 in 10.0 mi Variable 4.6 mph - N/A   Clear
2:55 PM 57.6 °F - 34.5 °F 42% 30.04 in 10.0 mi Variable 5.8 mph - N/A   Clear
3:55 PM 56.8 °F - 34.7 °F 43% 30.04 in 10.0 mi ESE 4.6 mph - N/A   Clear
4:55 PM 54.3 °F - 35.6 °F 49% 30.04 in 10.0 mi NE 3.5 mph - N/A   Clear
5:55 PM 45.3 °F - 39.4 °F 80% 30.06 in 10.0 mi Variable 1.2 mph - N/A   Clear
6:55 PM 41.4 °F 39.4 °F 37.6 °F 86% 30.09 in 10.0 mi NNE 3.5 mph - N/A   Clear
7:55 PM 38.8 °F - 37.4 °F 95% 30.10 in 10.0 mi SE 1.2 mph - N/A   Clear
8:55 PM 38.1 °F - 36.5 °F 94% 30.12 in 10.0 mi SSE 2.3 mph - N/A   Clear
9:55 PM 36.3 °F - 35.1 °F 95% 30.12 in 10.0 mi NNE 2.3 mph - N/A   Clear
10:55 PM 35.2 °F 32.4 °F 33.8 °F 94% 30.11 in 10.0 mi ENE 3.5 mph - N/A   Clear
11:55 PM 35.2 °F 32.4 °F 33.4 °F 93% 30.11 in 10.0 mi NE 3.5 mph - N/A   Clear